"Sample Date","Sample Time","Sample Value","Units","Flow Rate","Number Channels","Micron Size 0","Counts/Channel 0","Micron Size 1","Counts/Channel 1","Micron Size 2","Counts/Channel 2","Micron Size 3","Counts/Channel 3","Micron Size 4","Counts/Channel 4","Micron Size 5","Counts/Channel 5","Micron Size 6","Counts/Channel 6","Micron Size 7","Counts/Channel 7","Micron Size 8","Counts/Channel 8","Micron Size 9","Counts/Channel 9","Micron Size 10","Counts/Channel 10","Micron Size 11","Counts/Channel 11","Micron Size 12","Counts/Channel 12","Micron Size 13","Counts/Channel 13","Micron Size 14","Counts/Channel 14","Micron Size 15","Counts/Channel 15","Micron Size 16","Counts/Channel 16","Micron Size 17","Counts/Channel 17","Micron Size 18","Counts/Channel 18","Micron Size 19","Counts/Channel 19","Micron Size 20","Counts/Channel 20","Micron Size 21","Counts/Channel 21","Micron Size 22","Counts/Channel 22","Micron Size 23","Counts/Channel 23","Micron Size 24","Counts/Channel 24","Micron Size 25","Counts/Channel 25","Micron Size 26","Counts/Channel 26","Micron Size 27","Counts/Channel 27","Micron Size 28","Counts/Channel 28","Micron Size 29","Counts/Channel 29","Micron Size 30","Counts/Channel 30","Micron Size 31","Counts/Channel 31"
"05/10/08","20:00:00",13560.000,"cc",28272.320,6,0.100,11597.000,0.200,1820.000,0.300,119.000,0.500,21.000,1.000,3.000,5.000,0
"05/10/08","20:00:06",19241.000,"cc",28327.606,6,0.100,16673.000,0.200,2440.000,0.300,111.000,0.500,13.000,1.000,4.000,5.000,0
"05/10/08","20:00:12",27297.000,"cc",28277.768,6,0.100,23630.000,0.200,3487.000,0.300,159.000,0.500,20.000,1.000,1.000,5.000,0
"05/10/08","20:00:18",20752.000,"cc",28327.457,6,0.100,18009.000,0.200,2601.000,0.300,127.000,0.500,14.000,1.000,1.000,5.000,0
"05/10/08","20:00:24",11018.000,"cc",28324.746,6,0.100,9532.000,0.200,1396.000,0.300,80.000,0.500,9.000,1.000,1.000,5.000,0
"05/10/08","20:00:30",21131.000,"cc",28275.922,6,0.100,18317.000,0.200,2664.000,0.300,131.000,0.500,19.000,1.000,0,5.000,0
"05/10/08","20:00:36",15970.000,"cc",28262.025,6,0.100,13738.000,0.200,2117.000,0.300,99.000,0.500,15.000,1.000,1.000,5.000,0
"05/10/08","20:00:42",13737.000,"cc",28290.748,6,0.100,11870.000,0.200,1765.000,0.300,85.000,0.500,17.000,1.000,0,5.000,0
"05/10/08","20:00:48",9355.000,"cc",28351.531,6,0.100,7970.000,0.200,1287.000,0.300,87.000,0.500,10.000,1.000,1.000,5.000,0
"05/10/08","20:00:54",15256.000,"cc",28366.941,6,0.100,13144.000,0.200,1955.000,0.300,134.000,0.500,23.000,1.000,0,5.000,0
"05/10/08","20:01:00",14528.000,"cc",28334.926,6,0.100,12569.000,0.200,1826.000,0.300,120.000,0.500,13.000,1.000,0,5.000,0
"05/10/08","20:01:06",12974.000,"cc",28348.893,6,0.100,11241.000,0.200,1617.000,0.300,108.000,0.500,8.000,1.000,0,5.000,0
"05/10/08","20:01:12",13556.000,"cc",28354.197,6,0.100,11767.000,0.200,1664.000,0.300,102.000,0.500,23.000,1.000,0,5.000,0
"05/10/08","20:01:18",15293.000,"cc",28320.541,6,0.100,13315.000,0.200,1850.000,0.300,109.000,0.500,19.000,1.000,0,5.000,0
"05/10/08","20:01:24",8596.000,"cc",28313.629,6,0.100,7364.000,0.200,1128.000,0.300,93.000,0.500,10.000,1.000,1.000,5.000,0
"05/10/08","20:01:30",9332.000,"cc",28308.988,6,0.100,7983.000,0.200,1246.000,0.300,88.000,0.500,14.000,1.000,1.000,5.000,0
"05/10/08","20:01:36",10097.000,"cc",28330.574,6,0.100,8736.000,0.200,1252.000,0.300,91.000,0.500,17.000,1.000,1.000,5.000,0
"05/10/08","20:01:42",18321.000,"cc",28273.018,6,0.100,15871.000,0.200,2270.000,0.300,157.000,0.500,22.000,1.000,1.000,5.000,0
"05/10/08","20:01:48",16978.000,"cc",28294.863,6,0.100,14721.000,0.200,2135.000,0.300,110.000,0.500,12.000,1.000,0,5.000,0
"05/10/08","20:01:54",17263.000,"cc",28313.082,6,0.100,15121.000,0.200,2048.000,0.300,81.000,0.500,12.000,1.000,1.000,5.000,0
"05/10/08","20:02:00",18049.000,"cc",28303.856,6,0.100,15666.000,0.200,2292.000,0.300,77.000,0.500,13.000,1.000,1.000,5.000,0
"05/10/08","20:02:06",21203.000,"cc",28340.332,6,0.100,18493.000,0.200,2598.000,0.300,97.000,0.500,14.000,1.000,1.000,5.000,0
"05/10/08","20:02:12",29922.000,"cc",28305.957,6,0.100,26154.000,0.200,3613.000,0.300,141.000,0.500,14.000,1.000,0,5.000,0
"05/10/08","20:02:18",22760.000,"cc",28329.342,6,0.100,19918.000,0.200,2707.000,0.300,117.000,0.500,18.000,1.000,0,5.000,0
"05/10/08","20:02:24",13683.000,"cc",28291.639,6,0.100,12007.000,0.200,1587.000,0.300,79.000,0.500,8.000,1.000,2.000,5.000,0
"05/10/08","20:02:30",7604.000,"cc",28348.604,6,0.100,6575.000,0.200,959.000,0.300,63.000,0.500,7.000,1.000,0,5.000,0
"05/10/08","20:02:36",3786.000,"cc",28333.408,6,0.100,3192.000,0.200,536.000,0.300,51.000,0.500,7.000,1.000,0,5.000,0
"05/10/08","20:02:42",4038.000,"cc",28355.121,6,0.100,3397.000,0.200,571.000,0.300,59.000,0.500,11.000,1.000,0,5.000,0
"05/10/08","20:02:48",3321.000,"cc",28275.221,6,0.100,2788.000,0.200,479.000,0.300,43.000,0.500,11.000,1.000,0,5.000,0
"05/10/08","20:02:54",3197.000,"cc",28331.635,6,0.100,2707.000,0.200,446.000,0.300,37.000,0.500,7.000,1.000,0,5.000,0
"05/10/08","20:03:00",3523.000,"cc",28273.158,6,0.100,3003.000,0.200,461.000,0.300,50.000,0.500,9.000,1.000,0,5.000,0
"05/10/08","20:03:06",4028.000,"cc",28310.184,6,0.100,3419.000,0.200,546.000,0.300,52.000,0.500,11.000,1.000,0,5.000,0
"05/10/08","20:03:12",5071.000,"cc",28326.617,6,0.100,4309.000,0.200,690.000,0.300,56.000,0.500,16.000,1.000,0,5.000,0
"05/10/08","20:03:18",6844.000,"cc",28328.438,6,0.100,5841.000,0.200,920.000,0.300,73.000,0.500,10.000,1.000,0,5.000,0
"05/10/08","20:03:24",5027.000,"cc",28338.279,6,0.100,4334.000,0.200,632.000,0.300,53.000,0.500,7.000,1.000,1.000,5.000,0
"05/10/08","20:03:30",3367.000,"cc",28303.719,6,0.100,2799.000,0.200,518.000,0.300,35.000,0.500,14.000,1.000,1.000,5.000,0
"05/10/08","20:03:36",3934.000,"cc",28311.674,6,0.100,3349.000,0.200,520.000,0.300,59.000,0.500,6.000,1.000,0,5.000,0
"05/10/08","20:03:42",4474.000,"cc",28336.092,6,0.100,3839.000,0.200,567.000,0.300,52.000,0.500,16.000,1.000,0,5.000,0
"05/10/08","20:03:48",5917.000,"cc",28336.543,6,0.100,5046.000,0.200,779.000,0.300,79.000,0.500,13.000,1.000,0,5.000,0
"05/10/08","20:03:54",6032.000,"cc",28278.012,6,0.100,5143.000,0.200,791.000,0.300,83.000,0.500,14.000,1.000,1.000,5.000,0
"05/10/08","20:04:00",7638.000,"cc",28306.225,6,0.100,6504.000,0.200,1022.000,0.300,92.000,0.500,19.000,1.000,1.000,5.000,0
"05/10/08","20:04:06",6681.000,"cc",28346.742,6,0.100,5676.000,0.200,910.000,0.300,80.000,0.500,15.000,1.000,0,5.000,0
"05/10/08","20:04:12",7629.000,"cc",28334.770,6,0.100,6533.000,0.200,1001.000,0.300,77.000,0.500,18.000,1.000,0,5.000,0
"05/10/08","20:04:18",8669.000,"cc",28255.688,6,0.100,7477.000,0.200,1092.000,0.300,83.000,0.500,17.000,1.000,0,5.000,0
"05/10/08","20:04:24",9713.000,"cc",28177.129,6,0.100,8478.000,0.200,1138.000,0.300,82.000,0.500,15.000,1.000,0,5.000,0
"05/10/08","20:04:30",11561.000,"cc",28352.535,6,0.100,10090.000,0.200,1386.000,0.300,74.000,0.500,11.000,1.000,0,5.000,0
"05/10/08","20:04:36",11594.000,"cc",28418.414,6,0.100,10072.000,0.200,1418.000,0.300,91.000,0.500,13.000,1.000,0,5.000,0
"05/10/08","20:04:42",11523.000,"cc",28328.008,6,0.100,10030.000,0.200,1394.000,0.300,82.000,0.500,16.000,1.000,1.000,5.000,0
"05/10/08","20:04:48",13120.000,"cc",28306.996,6,0.100,11392.000,0.200,1639.000,0.300,76.000,0.500,13.000,1.000,0,5.000,0
"05/10/08","20:04:54",15456.000,"cc",28254.594,6,0.100,13515.000,0.200,1817.000,0.300,108.000,0.500,15.000,1.000,1.000,5.000,0
"05/10/08","20:05:00",14081.000,"cc",28364.568,6,0.100,12332.000,0.200,1655.000,0.300,82.000,0.500,12.000,1.000,0,5.000,0
"05/10/08","20:05:06",5175.000,"cc",28303.758,6,0.100,4450.000,0.200,673.000,0.300,40.000,0.500,12.000,1.000,0,5.000,0
"05/10/08","20:05:12",11277.000,"cc",28282.418,6,0.100,9743.000,0.200,1440.000,0.300,85.000,0.500,8.000,1.000,1.000,5.000,0
"05/10/08","20:05:18",9900.000,"cc",28316.754,6,0.100,8603.000,0.200,1218.000,0.300,70.000,0.500,8.000,1.000,1.000,5.000,0
"05/10/08","20:05:24",6523.000,"cc",28260.045,6,0.100,5624.000,0.200,824.000,0.300,58.000,0.500,17.000,1.000,0,5.000,0
"05/10/08","20:05:30",7819.000,"cc",28355.633,6,0.100,6720.000,0.200,1008.000,0.300,76.000,0.500,14.000,1.000,1.000,5.000,0
"05/10/08","20:05:36",7977.000,"cc",28327.565,6,0.100,6896.000,0.200,1016.000,0.300,49.000,0.500,16.000,1.000,0,5.000,0
"05/10/08","20:05:42",17233.000,"cc",28287.203,6,0.100,15012.000,0.200,2076.000,0.300,130.000,0.500,13.000,1.000,2.000,5.000,0
"05/10/08","20:05:48",13285.000,"cc",28297.783,6,0.100,11468.000,0.200,1696.000,0.300,101.000,0.500,20.000,1.000,0,5.000,0
"05/10/08","20:05:54",16140.000,"cc",28325.475,6,0.100,14072.000,0.200,1959.000,0.300,98.000,0.500,11.000,1.000,0,5.000,0
"05/10/08","20:06:00",15165.000,"cc",28331.522,6,0.100,13268.000,0.200,1776.000,0.300,105.000,0.500,16.000,1.000,0,5.000,0
"05/10/08","20:06:06",7226.000,"cc",28313.854,6,0.100,6240.000,0.200,909.000,0.300,68.000,0.500,8.000,1.000,1.000,5.000,0
"05/10/08","20:06:12",13223.000,"cc",28325.014,6,0.100,11525.000,0.200,1591.000,0.300,94.000,0.500,12.000,1.000,1.000,5.000,0
"05/10/08","20:06:18",9312.000,"cc",28304.861,6,0.100,8098.000,0.200,1124.000,0.300,77.000,0.500,12.000,1.000,1.000,5.000,0
"05/10/08","20:06:24",11739.000,"cc",28361.059,6,0.100,10154.000,0.200,1494.000,0.300,76.000,0.500,15.000,1.000,0,5.000,0
"05/10/08","20:06:30",9113.000,"cc",28360.084,6,0.100,7935.000,0.200,1091.000,0.300,69.000,0.500,18.000,1.000,0,5.000,0
"05/10/08","20:06:36",5430.000,"cc",28252.967,6,0.100,4654.000,0.200,716.000,0.300,50.000,0.500,10.000,1.000,0,5.000,0
"05/10/08","20:06:42",14410.000,"cc",28395.398,6,0.100,12573.000,0.200,1737.000,0.300,87.000,0.500,13.000,1.000,0,5.000,0
"05/10/08","20:06:48",19095.000,"cc",28361.381,6,0.100,16684.000,0.200,2303.000,0.300,98.000,0.500,9.000,1.000,1.000,5.000,0
"05/10/08","20:06:54",12430.000,"cc",28305.838,6,0.100,10824.000,0.200,1510.000,0.300,81.000,0.500,15.000,1.000,0,5.000,0
"05/10/08","20:07:00",10976.000,"cc",28311.742,6,0.100,9495.000,0.200,1376.000,0.300,92.000,0.500,13.000,1.000,0,5.000,0
"05/10/08","20:07:06",10399.000,"cc",28287.740,6,0.100,9054.000,0.200,1263.000,0.300,72.000,0.500,10.000,1.000,0,5.000,0
"05/10/08","20:07:12",14515.000,"cc",28323.494,6,0.100,12682.000,0.200,1719.000,0.300,98.000,0.500,15.000,1.000,1.000,5.000,0
"05/10/08","20:07:18",17510.000,"cc",28268.272,6,0.100,15309.000,0.200,2081.000,0.300,109.000,0.500,11.000,1.000,0,5.000,0
"05/10/08","20:07:24",25309.000,"cc",28329.059,6,0.100,22406.000,0.200,2785.000,0.300,110.000,0.500,7.000,1.000,1.000,5.000,0
"05/10/08","20:07:30",18714.000,"cc",28280.543,6,0.100,16447.000,0.200,2145.000,0.300,108.000,0.500,14.000,1.000,0,5.000,0
"05/10/08","20:07:36",10039.000,"cc",28238.232,6,0.100,8797.000,0.200,1156.000,0.300,74.000,0.500,12.000,1.000,0,5.000,0
"05/10/08","20:07:42",4498.000,"cc",28317.332,6,0.100,3856.000,0.200,600.000,0.300,35.000,0.500,6.000,1.000,1.000,5.000,0
"05/10/08","20:07:48",4168.000,"cc",28238.563,6,0.100,3550.000,0.200,564.000,0.300,49.000,0.500,4.000,1.000,1.000,5.000,0
"05/10/08","20:07:54",2158.000,"cc",28373.848,6,0.100,1804.000,0.200,321.000,0.300,29.000,0.500,4.000,1.000,0,5.000,0
"05/10/08","20:08:00",2431.000,"cc",28328.865,6,0.100,2012.000,0.200,378.000,0.300,34.000,0.500,6.000,1.000,1.000,5.000,0
"05/10/08","20:08:06",2157.000,"cc",28343.164,6,0.100,1837.000,0.200,283.000,0.300,32.000,0.500,5.000,1.000,0,5.000,0
"05/10/08","20:08:12",2048.000,"cc",28337.838,6,0.100,1710.000,0.200,290.000,0.300,39.000,0.500,9.000,1.000,0,5.000,0
"05/10/08","20:08:18",1767.000,"cc",28352.826,6,0.100,1476.000,0.200,251.000,0.300,32.000,0.500,8.000,1.000,0,5.000,0
"05/10/08","20:08:24",1595.000,"cc",28253.109,6,0.100,1324.000,0.200,234.000,0.300,28.000,0.500,9.000,1.000,0,5.000,0
"05/10/08","20:08:30",1656.000,"cc",28322.916,6,0.100,1393.000,0.200,237.000,0.300,22.000,0.500,4.000,1.000,0,5.000,0
"05/10/08","20:08:36",1653.000,"cc",28345.084,6,0.100,1348.000,0.200,270.000,0.300,29.000,0.500,6.000,1.000,0,5.000,0
"05/10/08","20:08:42",1680.000,"cc",28314.313,6,0.100,1391.000,0.200,254.000,0.300,29.000,0.500,6.000,1.000,0,5.000,0
"05/10/08","20:08:48",1697.000,"cc",28368.145,6,0.100,1358.000,0.200,289.000,0.300,39.000,0.500,11.000,1.000,0,5.000,0
"05/10/08","20:08:54",1725.000,"cc",28286.783,6,0.100,1418.000,0.200,270.000,0.300,29.000,0.500,6.000,1.000,2.000,5.000,0
"05/10/08","20:09:00",1650.000,"cc",28357.354,6,0.100,1388.000,0.200,235.000,0.300,25.000,0.500,2.000,1.000,0,5.000,0
"05/10/08","20:09:06",1629.000,"cc",28384.654,6,0.100,1334.000,0.200,259.000,0.300,19.000,0.500,16.000,1.000,1.000,5.000,0
"05/10/08","20:09:12",1639.000,"cc",28352.955,6,0.100,1368.000,0.200,243.000,0.300,23.000,0.500,5.000,1.000,0,5.000,0
"05/10/08","20:09:18",1635.000,"cc",28382.127,6,0.100,1344.000,0.200,266.000,0.300,20.000,0.500,5.000,1.000,0,5.000,0
"05/10/08","20:09:24",1613.000,"cc",28272.201,6,0.100,1326.000,0.200,259.000,0.300,25.000,0.500,3.000,1.000,0,5.000,0
"05/10/08","20:09:30",1734.000,"cc",28297.674,6,0.100,1447.000,0.200,249.000,0.300,35.000,0.500,3.000,1.000,0,5.000,0
"05/10/08","20:09:36",1638.000,"cc",28347.715,6,0.100,1359.000,0.200,243.000,0.300,32.000,0.500,4.000,1.000,0,5.000,0
"05/10/08","20:09:42",1610.000,"cc",28303.721,6,0.100,1316.000,0.200,256.000,0.300,27.000,0.500,10.000,1.000,1.000,5.000,0
"05/10/08","20:09:48",1650.000,"cc",28256.354,6,0.100,1366.000,0.200,249.000,0.300,25.000,0.500,10.000,1.000,0,5.000,0
"05/10/08","20:09:54",1699.000,"cc",28285.449,6,0.100,1369.000,0.200,295.000,0.300,29.000,0.500,6.000,1.000,0,5.000,0
"05/10/08","20:10:00",1647.000,"cc",28363.652,6,0.100,1340.000,0.200,270.000,0.300,28.000,0.500,8.000,1.000,1.000,5.000,0
"05/10/08","20:10:06",1660.000,"cc",28343.857,6,0.100,1399.000,0.200,226.000,0.300,27.000,0.500,8.000,1.000,0,5.000,0
"05/10/08","20:10:12",1591.000,"cc",28337.586,6,0.100,1298.000,0.200,247.000,0.300,36.000,0.500,10.000,1.000,0,5.000,0
"05/10/08","20:10:18",1637.000,"cc",28256.830,6,0.100,1343.000,0.200,258.000,0.300,30.000,0.500,6.000,1.000,0,5.000,0
"05/10/08","20:10:24",1570.000,"cc",28275.801,6,0.100,1289.000,0.200,235.000,0.300,37.000,0.500,9.000,1.000,0,5.000,0
"05/10/08","20:10:30",1578.000,"cc",28260.918,6,0.100,1291.000,0.200,248.000,0.300,32.000,0.500,6.000,1.000,1.000,5.000,0
"05/10/08","20:10:36",1675.000,"cc",28206.465,6,0.100,1365.000,0.200,277.000,0.300,25.000,0.500,6.000,1.000,2.000,5.000,0
"05/10/08","20:10:42",1703.000,"cc",28220.065,6,0.100,1379.000,0.200,291.000,0.300,22.000,0.500,11.000,1.000,0,5.000,0
"05/10/08","20:10:48",1592.000,"cc",28358.279,6,0.100,1298.000,0.200,262.000,0.300,23.000,0.500,9.000,1.000,0,5.000,0
"05/10/08","20:10:54",1710.000,"cc",28340.650,6,0.100,1385.000,0.200,287.000,0.300,32.000,0.500,6.000,1.000,0,5.000,0
"05/10/08","20:11:00",1684.000,"cc",28339.410,6,0.100,1367.000,0.200,272.000,0.300,34.000,0.500,11.000,1.000,0,5.000,0
"05/10/08","20:11:06",1575.000,"cc",28325.096,6,0.100,1311.000,0.200,238.000,0.300,19.000,0.500,7.000,1.000,0,5.000,0
"05/10/08","20:11:12",1579.000,"cc",28294.840,6,0.100,1313.000,0.200,238.000,0.300,24.000,0.500,4.000,1.000,0,5.000,0
"05/10/08","20:11:18",1649.000,"cc",28287.113,6,0.100,1406.000,0.200,214.000,0.300,22.000,0.500,7.000,1.000,0,5.000,0
"05/10/08","20:11:24",1590.000,"cc",28312.055,6,0.100,1303.000,0.200,245.000,0.300,34.000,0.500,7.000,1.000,1.000,5.000,0
"05/10/08","20:11:30",1701.000,"cc",28305.201,6,0.100,1387.000,0.200,290.000,0.300,15.000,0.500,9.000,1.000,0,5.000,0
"05/10/08","20:11:36",1712.000,"cc",28444.098,6,0.100,1420.000,0.200,255.000,0.300,31.000,0.500,6.000,1.000,0,5.000,0
"05/10/08","20:11:42",1674.000,"cc",28417.383,6,0.100,1373.000,0.200,269.000,0.300,28.000,0.500,4.000,1.000,0,5.000,0
"05/10/08","20:11:48",1649.000,"cc",28314.842,6,0.100,1358.000,0.200,242.000,0.300,35.000,0.500,13.000,1.000,1.000,5.000,0
"05/10/08","20:11:54",1684.000,"cc",28286.854,6,0.100,1415.000,0.200,238.000,0.300,23.000,0.500,7.000,1.000,1.000,5.000,0
"05/10/08","20:12:00",1640.000,"cc",28391.629,6,0.100,1345.000,0.200,266.000,0.300,24.000,0.500,5.000,1.000,0,5.000,0
"05/10/08","20:12:06",1662.000,"cc",28327.500,6,0.100,1365.000,0.200,264.000,0.300,27.000,0.500,6.000,1.000,0,5.000,0
"05/10/08","20:12:12",1657.000,"cc",28278.268,6,0.100,1374.000,0.200,255.000,0.300,22.000,0.500,6.000,1.000,0,5.000,0
"05/10/08","20:12:18",1685.000,"cc",28368.688,6,0.100,1367.000,0.200,276.000,0.300,35.000,0.500,7.000,1.000,0,5.000,0
"05/10/08","20:12:24",1607.000,"cc",28262.553,6,0.100,1343.000,0.200,230.000,0.300,29.000,0.500,5.000,1.000,0,5.000,0
"05/10/08","20:12:30",1651.000,"cc",28335.455,6,0.100,1360.000,0.200,256.000,0.300,30.000,0.500,5.000,1.000,0,5.000,0
"05/10/08","20:12:36",1682.000,"cc",28327.357,6,0.100,1371.000,0.200,275.000,0.300,30.000,0.500,5.000,1.000,1.000,5.000,0
"05/10/08","20:12:42",1606.000,"cc",28281.426,6,0.100,1331.000,0.200,244.000,0.300,24.000,0.500,7.000,1.000,0,5.000,0
"05/10/08","20:12:48",1693.000,"cc",28362.201,6,0.100,1405.000,0.200,255.000,0.300,28.000,0.500,5.000,1.000,0,5.000,0
"05/10/08","20:12:54",1607.000,"cc",28333.598,6,0.100,1360.000,0.200,214.000,0.300,27.000,0.500,6.000,1.000,0,5.000,0
"05/10/08","20:13:00",1551.000,"cc",28247.744,6,0.100,1277.000,0.200,234.000,0.300,30.000,0.500,9.000,1.000,1.000,5.000,0
"05/10/08","20:13:06",1641.000,"cc",28220.281,6,0.100,1336.000,0.200,259.000,0.300,36.000,0.500,10.000,1.000,0,5.000,0
"05/10/08","20:13:12",1648.000,"cc",28265.865,6,0.100,1374.000,0.200,244.000,0.300,24.000,0.500,6.000,1.000,0,5.000,0
"05/10/08","20:13:18",1631.000,"cc",28308.727,6,0.100,1353.000,0.200,252.000,0.300,24.000,0.500,2.000,1.000,0,5.000,0
"05/10/08","20:13:24",1638.000,"cc",28283.988,6,0.100,1333.000,0.200,272.000,0.300,27.000,0.500,4.000,1.000,2.000,5.000,0
"05/10/08","20:13:30",1595.000,"cc",28336.111,6,0.100,1282.000,0.200,277.000,0.300,31.000,0.500,5.000,1.000,0,5.000,0
"05/10/08","20:13:36",1624.000,"cc",28355.574,6,0.100,1335.000,0.200,262.000,0.300,22.000,0.500,5.000,1.000,0,5.000,0
"05/10/08","20:13:42",1743.000,"cc",28290.848,6,0.100,1444.000,0.200,273.000,0.300,20.000,0.500,5.000,1.000,1.000,5.000,0
"05/10/08","20:13:48",1664.000,"cc",28325.277,6,0.100,1350.000,0.200,274.000,0.300,34.000,0.500,6.000,1.000,0,5.000,0
"05/10/08","20:13:54",1661.000,"cc",28390.440,6,0.100,1358.000,0.200,270.000,0.300,30.000,0.500,3.000,1.000,0,5.000,0
"05/10/08","20:14:00",1679.000,"cc",28384.432,6,0.100,1375.000,0.200,261.000,0.300,32.000,0.500,10.000,1.000,1.000,5.000,0
"05/10/08","20:14:06",1690.000,"cc",28265.619,6,0.100,1369.000,0.200,289.000,0.300,25.000,0.500,6.000,1.000,1.000,5.000,0
"05/10/08","20:14:12",1658.000,"cc",28296.357,6,0.100,1357.000,0.200,270.000,0.300,29.000,0.500,2.000,1.000,0,5.000,0
"05/10/08","20:14:18",1677.000,"cc",28359.137,6,0.100,1397.000,0.200,251.000,0.300,20.000,0.500,9.000,1.000,0,5.000,0
"05/10/08","20:14:24",1622.000,"cc",28323.397,6,0.100,1347.000,0.200,235.000,0.300,29.000,0.500,11.000,1.000,0,5.000,0
"05/10/08","20:14:30",1663.000,"cc",28296.725,6,0.100,1378.000,0.200,248.000,0.300,29.000,0.500,8.000,1.000,0,5.000,0
"05/10/08","20:14:36",1731.000,"cc",28279.471,6,0.100,1412.000,0.200,271.000,0.300,40.000,0.500,8.000,1.000,0,5.000,0
"05/10/08","20:14:42",1687.000,"cc",28367.787,6,0.100,1386.000,0.200,254.000,0.300,34.000,0.500,12.000,1.000,1.000,5.000,0
"05/10/08","20:14:48",1589.000,"cc",28352.568,6,0.100,1306.000,0.200,244.000,0.300,32.000,0.500,7.000,1.000,0,5.000,0
"05/10/08","20:14:54",1670.000,"cc",28274.990,6,0.100,1355.000,0.200,275.000,0.300,35.000,0.500,5.000,1.000,0,5.000,0
"05/10/08","20:15:00",1568.000,"cc",28320.555,6,0.100,1285.000,0.200,250.000,0.300,29.000,0.500,4.000,1.000,0,5.000,0
"05/10/08","20:15:06",1629.000,"cc",28332.156,6,0.100,1326.000,0.200,263.000,0.300,31.000,0.500,9.000,1.000,0,5.000,0
"05/10/08","20:15:12",1628.000,"cc",28284.461,6,0.100,1302.000,0.200,294.000,0.300,23.000,0.500,9.000,1.000,0,5.000,0
"05/10/08","20:15:18",1658.000,"cc",28302.846,6,0.100,1358.000,0.200,267.000,0.300,26.000,0.500,7.000,1.000,0,5.000,0
"05/10/08","20:15:24",1686.000,"cc",28360.848,6,0.100,1414.000,0.200,239.000,0.300,27.000,0.500,6.000,1.000,0,5.000,0
"05/10/08","20:15:30",1627.000,"cc",28329.193,6,0.100,1343.000,0.200,259.000,0.300,18.000,0.500,6.000,1.000,1.000,5.000,0
"05/10/08","20:15:36",1633.000,"cc",28385.049,6,0.100,1313.000,0.200,284.000,0.300,31.000,0.500,4.000,1.000,1.000,5.000,0
"05/10/08","20:15:42",1671.000,"cc",28342.898,6,0.100,1364.000,0.200,261.000,0.300,38.000,0.500,8.000,1.000,0,5.000,0
"05/10/08","20:15:48",1688.000,"cc",28304.490,6,0.100,1387.000,0.200,269.000,0.300,25.000,0.500,7.000,1.000,0,5.000,0
"05/10/08","20:15:54",1628.000,"cc",28268.051,6,0.100,1322.000,0.200,267.000,0.300,34.000,0.500,5.000,1.000,0,5.000,0
"05/10/08","20:16:00",1626.000,"cc",28236.941,6,0.100,1338.000,0.200,255.000,0.300,27.000,0.500,5.000,1.000,1.000,5.000,0
"05/10/08","20:16:06",1677.000,"cc",28336.322,6,0.100,1401.000,0.200,240.000,0.300,28.000,0.500,8.000,1.000,0,5.000,0
"05/10/08","20:16:12",1660.000,"cc",28223.178,6,0.100,1362.000,0.200,264.000,0.300,30.000,0.500,4.000,1.000,0,5.000,0
"05/10/08","20:16:18",1653.000,"cc",28385.756,6,0.100,1332.000,0.200,291.000,0.300,25.000,0.500,5.000,1.000,0,5.000,0
"05/10/08","20:16:24",1608.000,"cc",28280.844,6,0.100,1316.000,0.200,265.000,0.300,27.000,0.500,0,1.000,0,5.000,0
"05/10/08","20:16:30",1658.000,"cc",28380.947,6,0.100,1376.000,0.200,245.000,0.300,30.000,0.500,7.000,1.000,0,5.000,0
"05/10/08","20:16:36",1689.000,"cc",28320.102,6,0.100,1375.000,0.200,272.000,0.300,33.000,0.500,9.000,1.000,0,5.000,0
"05/10/08","20:16:42",1618.000,"cc",28353.900,6,0.100,1321.000,0.200,265.000,0.300,27.000,0.500,5.000,1.000,0,5.000,0
"05/10/08","20:16:48",1650.000,"cc",28288.594,6,0.100,1321.000,0.200,298.000,0.300,25.000,0.500,6.000,1.000,0,5.000,0
"05/10/08","20:16:54",1664.000,"cc",28337.426,6,0.100,1350.000,0.200,271.000,0.300,35.000,0.500,8.000,1.000,0,5.000,0
"05/10/08","20:17:00",1703.000,"cc",28235.518,6,0.100,1357.000,0.200,308.000,0.300,33.000,0.500,3.000,1.000,2.000,5.000,0
"05/10/08","20:17:06",1727.000,"cc",28338.436,6,0.100,1428.000,0.200,269.000,0.300,24.000,0.500,6.000,1.000,0,5.000,0
"05/10/08","20:17:12",1647.000,"cc",28344.496,6,0.100,1339.000,0.200,280.000,0.300,24.000,0.500,4.000,1.000,0,5.000,0
"05/10/08","20:17:18",1706.000,"cc",28331.922,6,0.100,1386.000,0.200,289.000,0.300,25.000,0.500,6.000,1.000,0,5.000,0
"05/10/08","20:17:24",1686.000,"cc",28237.594,6,0.100,1372.000,0.200,260.000,0.300,45.000,0.500,8.000,1.000,1.000,5.000,0
"05/10/08","20:17:30",1683.000,"cc",28355.389,6,0.100,1360.000,0.200,283.000,0.300,33.000,0.500,7.000,1.000,0,5.000,0
"05/10/08","20:17:36",1676.000,"cc",28311.397,6,0.100,1368.000,0.200,279.000,0.300,23.000,0.500,6.000,1.000,0,5.000,0
"05/10/08","20:17:42",1690.000,"cc",28305.908,6,0.100,1399.000,0.200,255.000,0.300,29.000,0.500,6.000,1.000,1.000,5.000,0
"05/10/08","20:17:48",1642.000,"cc",28378.463,6,0.100,1314.000,0.200,288.000,0.300,28.000,0.500,12.000,1.000,0,5.000,0
"05/10/08","20:17:54",1704.000,"cc",28334.959,6,0.100,1371.000,0.200,291.000,0.300,37.000,0.500,5.000,1.000,0,5.000,0
"05/10/08","20:18:00",1561.000,"cc",28275.414,6,0.100,1286.000,0.200,238.000,0.300,24.000,0.500,13.000,1.000,0,5.000,0
"05/10/08","20:18:06",1696.000,"cc",28327.565,6,0.100,1403.000,0.200,253.000,0.300,34.000,0.500,6.000,1.000,0,5.000,0
"05/10/08","20:18:12",1656.000,"cc",28362.549,6,0.100,1345.000,0.200,279.000,0.300,22.000,0.500,9.000,1.000,1.000,5.000,0
"05/10/08","20:18:18",1678.000,"cc",28377.565,6,0.100,1368.000,0.200,275.000,0.300,31.000,0.500,4.000,1.000,0,5.000,0
"05/10/08","20:18:24",1697.000,"cc",28278.549,6,0.100,1402.000,0.200,262.000,0.300,25.000,0.500,8.000,1.000,0,5.000,0
"05/10/08","20:18:30",1691.000,"cc",28344.551,6,0.100,1377.000,0.200,270.000,0.300,27.000,0.500,15.000,1.000,2.000,5.000,0
"05/10/08","20:18:36",1662.000,"cc",28294.100,6,0.100,1334.000,0.200,284.000,0.300,37.000,0.500,6.000,1.000,1.000,5.000,0